TimeEST,TemperatureF,Dew PointF,Humidity,Sea Level PressureIn,VisibilityMPH,Wind Direction,Wind SpeedMPH,Gust SpeedMPH,PrecipitationIn,Events,Conditions,WindDirDegrees,DateUTC
12:15 AM,19.4,12.2,74,30.12,10.0,South,6.9,-,N/A,,Clear,170,2012-01-04 05:15:00
12:34 AM,19.4,12.2,74,30.11,10.0,South,6.9,-,N/A,,Clear,170,2012-01-04 05:34:00
12:55 AM,19.4,14.0,80,30.10,10.0,South,10.4,-,N/A,,Clear,180,2012-01-04 05:55:00
1:15 AM,19.4,14.0,80,30.09,10.0,South,9.2,-,N/A,,Clear,170,2012-01-04 06:15:00
1:34 AM,19.4,14.0,80,30.08,10.0,South,9.2,-,N/A,,Clear,180,2012-01-04 06:34:00
1:55 AM,19.4,14.0,80,30.07,10.0,South,9.2,-,N/A,,Clear,180,2012-01-04 06:55:00
2:15 AM,21.2,14.0,74,30.06,10.0,South,8.1,-,N/A,,Clear,170,2012-01-04 07:15:00
2:34 AM,21.2,14.0,74,30.06,10.0,South,9.2,-,N/A,,Clear,180,2012-01-04 07:34:00
2:55 AM,19.4,14.0,80,30.05,10.0,South,9.2,-,N/A,,Clear,180,2012-01-04 07:55:00
3:15 AM,19.4,14.0,80,30.04,10.0,South,8.1,-,N/A,,Clear,180,2012-01-04 08:15:00
3:34 AM,19.4,14.0,80,30.04,10.0,South,6.9,-,N/A,,Clear,180,2012-01-04 08:34:00
3:55 AM,19.4,14.0,80,30.02,10.0,South,8.1,-,N/A,,Clear,180,2012-01-04 08:55:00
4:14 AM,19.4,14.0,80,30.02,10.0,South,6.9,-,N/A,,Clear,190,2012-01-04 09:14:00
4:35 AM,19.4,14.0,80,30.00,10.0,South,8.1,-,N/A,,Clear,180,2012-01-04 09:35:00
4:55 AM,21.2,14.0,74,29.99,10.0,South,9.2,-,N/A,,Clear,190,2012-01-04 09:55:00
5:14 AM,21.2,15.8,80,29.98,10.0,South,9.2,-,N/A,,Clear,190,2012-01-04 10:14:00
5:35 AM,21.2,15.8,80,29.97,10.0,SSW,8.1,-,N/A,,Clear,200,2012-01-04 10:35:00
5:54 AM,21.2,15.8,80,29.97,10.0,South,6.9,-,N/A,,Clear,190,2012-01-04 10:54:00
6:15 AM,21.2,15.8,80,29.96,10.0,South,9.2,-,N/A,,Clear,190,2012-01-04 11:15:00
6:35 AM,21.2,15.8,80,29.96,10.0,SSW,8.1,-,N/A,,Clear,200,2012-01-04 11:35:00
6:54 AM,21.2,17.6,86,29.95,10.0,South,10.4,-,N/A,,Clear,190,2012-01-04 11:54:00
7:15 AM,23.0,17.6,80,29.94,10.0,SSW,11.5,-,N/A,,Clear,200,2012-01-04 12:15:00
7:35 AM,23.0,17.6,80,29.95,10.0,SSW,9.2,-,N/A,,Clear,210,2012-01-04 12:35:00
7:54 AM,23.0,17.6,80,29.95,10.0,SSW,10.4,-,N/A,,Clear,210,2012-01-04 12:54:00
8:15 AM,23.0,17.6,80,29.95,10.0,SSW,8.1,-,N/A,,Clear,210,2012-01-04 13:15:00
8:35 AM,23.0,17.6,80,29.96,10.0,SW,5.8,-,N/A,,Clear,220,2012-01-04 13:35:00
8:54 AM,24.8,17.6,74,29.96,10.0,SSW,5.8,-,N/A,,Clear,210,2012-01-04 13:54:00
9:15 AM,23.0,19.4,86,29.95,10.0,SSW,6.9,-,N/A,,Clear,200,2012-01-04 14:15:00
9:35 AM,23.0,19.4,86,29.96,10.0,SSW,4.6,-,N/A,,Clear,200,2012-01-04 14:35:00
9:54 AM,24.8,19.4,80,29.97,10.0,SW,4.6,-,N/A,,Clear,230,2012-01-04 14:54:00
10:15 AM,26.6,19.4,74,29.96,10.0,SW,6.9,-,N/A,,Clear,220,2012-01-04 15:15:00
10:35 AM,28.4,19.4,69,29.95,10.0,SSW,8.1,-,N/A,,Clear,210,2012-01-04 15:35:00
10:55 AM,28.4,21.2,74,29.95,10.0,SW,6.9,-,N/A,,Clear,220,2012-01-04 15:55:00
11:15 AM,30.2,21.2,69,29.94,10.0,SW,8.1,16.1,N/A,,Clear,220,2012-01-04 16:15:00
11:34 AM,30.2,21.2,69,29.94,10.0,SW,9.2,-,N/A,,Clear,230,2012-01-04 16:34:00
11:55 AM,32.0,21.2,64,29.93,10.0,WSW,8.1,16.1,N/A,,Clear,240,2012-01-04 16:55:00
12:15 PM,30.2,21.2,69,29.92,10.0,SW,6.9,-,N/A,,Clear,230,2012-01-04 17:15:00
12:34 PM,32.0,23.0,69,29.92,10.0,West,8.1,-,N/A,,Clear,260,2012-01-04 17:34:00
12:55 PM,32.0,24.8,75,29.90,10.0,WSW,8.1,-,N/A,,Clear,240,2012-01-04 17:55:00
1:15 PM,32.0,24.8,75,29.88,10.0,SW,9.2,-,N/A,,Clear,230,2012-01-04 18:15:00
1:34 PM,32.0,24.8,75,29.87,10.0,WSW,6.9,-,N/A,,Clear,240,2012-01-04 18:34:00
1:55 PM,33.8,24.8,70,29.87,10.0,WSW,10.4,16.1,N/A,,Clear,240,2012-01-04 18:55:00
2:14 PM,33.8,26.6,75,29.87,10.0,SW,6.9,-,N/A,,Clear,220,2012-01-04 19:14:00
2:35 PM,33.8,26.6,75,29.87,10.0,WSW,6.9,-,N/A,,Clear,240,2012-01-04 19:35:00
2:55 PM,33.8,26.6,75,29.88,10.0,WSW,5.8,-,N/A,,Clear,240,2012-01-04 19:55:00
3:14 PM,33.8,26.6,75,29.88,10.0,WSW,5.8,-,N/A,,Clear,250,2012-01-04 20:14:00
4:14 PM,33.8,28.4,81,29.91,10.0,West,12.7,-,N/A,,Clear,270,2012-01-04 21:14:00
4:35 PM,33.8,28.4,81,29.91,10.0,WNW,9.2,-,N/A,,Scattered Clouds,290,2012-01-04 21:35:00
4:55 PM,33.8,28.4,81,29.92,10.0,WNW,12.7,-,N/A,,Mostly Cloudy,290,2012-01-04 21:55:00
5:15 PM,32.0,28.4,87,29.92,10.0,West,12.7,-,N/A,,Overcast,280,2012-01-04 22:15:00
5:35 PM,32.0,30.2,93,29.93,10.0,West,11.5,-,N/A,,Overcast,280,2012-01-04 22:35:00
5:54 PM,32.0,30.2,93,29.94,10.0,West,9.2,-,N/A,,Overcast,280,2012-01-04 22:54:00
6:15 PM,32.0,30.2,93,29.94,10.0,West,10.4,-,N/A,,Mostly Cloudy,270,2012-01-04 23:15:00
6:35 PM,32.0,30.2,93,29.94,10.0,West,8.1,-,N/A,,Mostly Cloudy,280,2012-01-04 23:35:00
6:54 PM,32.0,30.2,93,29.96,10.0,West,8.1,-,N/A,,Scattered Clouds,280,2012-01-04 23:54:00
7:15 PM,32.0,30.2,93,29.97,10.0,WNW,8.1,-,N/A,,Mostly Cloudy,290,2012-01-05 00:15:00
7:34 PM,32.0,30.2,93,29.97,10.0,WNW,10.4,-,N/A,,Overcast,290,2012-01-05 00:34:00
7:55 PM,32.0,30.2,93,29.97,10.0,WNW,10.4,-,N/A,,Overcast,290,2012-01-05 00:55:00
8:15 PM,32.0,30.2,93,29.98,10.0,WNW,9.2,-,N/A,,Overcast,290,2012-01-05 01:15:00
8:34 PM,32.0,30.2,93,29.98,10.0,WNW,9.2,-,N/A,,Overcast,300,2012-01-05 01:34:00
8:55 PM,32.0,30.2,93,29.98,10.0,WNW,8.1,-,N/A,,Overcast,300,2012-01-05 01:55:00
9:15 PM,32.0,30.2,93,29.99,10.0,WNW,8.1,-,N/A,,Overcast,300,2012-01-05 02:15:00
9:34 PM,32.0,30.2,93,29.99,10.0,WNW,6.9,-,N/A,,Scattered Clouds,290,2012-01-05 02:34:00
9:55 PM,32.0,30.2,93,29.99,10.0,West,5.8,-,N/A,,Clear,280,2012-01-05 02:55:00
10:14 PM,32.0,30.2,93,30.00,10.0,West,5.8,-,N/A,,Clear,280,2012-01-05 03:14:00
10:35 PM,32.0,30.2,93,30.00,10.0,West,6.9,-,N/A,,Clear,280,2012-01-05 03:35:00
10:55 PM,32.0,30.2,93,29.98,10.0,West,5.8,-,N/A,,Clear,270,2012-01-05 03:55:00
11:15 PM,32.0,30.2,93,29.98,10.0,West,6.9,-,N/A,,Clear,280,2012-01-05 04:15:00
11:35 PM,30.2,28.4,93,29.97,10.0,West,5.8,-,N/A,,Clear,270,2012-01-05 04:35:00
11:55 PM,30.2,28.4,93,29.97,10.0,West,6.9,-,N/A,,Clear,270,2012-01-05 04:55:00